#timestamp,LO_Frequency,Hit,StdDev 
1459594815.0,286046999.7,N
1459594815.9,286046999.7,N
1459594835.8,286047000.2,N
1459594855.6,286047005.8,N
1459594875.4,286047005.6,N
1459594895.2,286047001.3,N
1459594915.1,286047001.7,N
1459594916.0,286047001.7,N
1459594935.8,286047002.1,N
1459594955.6,286047000.9,N
1459594975.5,286046998.9,N
1459594995.3,286046996.9,N
1459595015.1,286046993.9,N
1459595035.9,286046998.7,N
1459595055.7,286047002.2,N
1459595075.5,286047001.7,N
1459595095.4,286047004.8,N
1459595115.2,286047003.9,N
1459595135.0,286047000.9,N
1459595135.9,286047000.9,N
1459595155.8,286046999.4,N
1459595175.6,286047000.8,N
1459595195.4,286047001.3,N
1459595215.3,286047006.9,N
1459595235.1,286047007.4,N
1459595236.0,286047007.4,N
1459595255.8,286047005.1,N
1459595275.6,286047006.8,N
1459595295.5,286047005.0,N
1459595315.3,286047008.3,N
1459595335.2,286047012.2,Y
1459595355.9,286047011.1,P
1459595375.7,286047008.3,N
1459595395.5,286047004.6,N
1459595415.4,286047002.8,N
1459595435.2,286047001.1,N
1459595455.0,286046999.7,N
1459595455.9,286046999.7,N
1459595475.8,286046999.3,N
1459595495.6,286046999.1,N
1459595515.4,286047002.2,N
1459595535.3,286046996.3,N
1459595555.1,286046995.5,N
1459595556.0,286046995.5,N
1459595575.8,286046992.0,N
1459595595.7,286046996.0,N
1459595615.5,286046992.8,N
1459595635.3,286046989.1,N
1459595655.2,286046990.2,N
1459595675.9,286046991.9,N
1459595695.7,286046994.7,N
1459595715.5,286046993.9,N
1459595735.4,286046993.7,N
1459595755.2,286046995.4,N
1459595775.0,286046991.9,N
1459595775.9,286046991.9,N
1459595795.8,286046992.8,N
1459595815.6,286046989.4,N
1459595835.4,286046992.9,N
1459595855.3,286046994.7,N
1459595875.1,286046990.4,N
1459595876.0,286046990.4,N
1459595895.8,286046991.5,N
1459595915.7,286046989.7,N
1459595935.5,286046994.7,N
1459595955.3,286046994.7,N
1459595975.2,286046998.4,N
1459595995.9,286046998.6,N
1459596015.7,286046995.3,N
1459596035.6,286046994.6,N
1459596055.4,286046995.5,N
1459596075.2,286046996.2,N
1459596095.0,286046997.4,N
1459596095.9,286046997.4,N
1459596115.8,286046997.7,N
1459596135.6,286046998.3,N
1459596155.4,286046997.0,N
1459596175.3,286046996.7,N
1459596195.1,286046995.9,N
1459596215.8,286046995.7,N
1459596235.7,286046997.4,N
1459596255.5,286046997.6,N
1459596275.3,286046995.4,N
1459596295.2,286046996.8,N
1459596315.9,286046998.3,N
1459596335.7,286047003.6,N
1459596355.6,286047000.8,N
1459596375.4,286046997.2,N
1459596395.2,286046995.1,N
1459596415.0,286046997.8,N
1459596416.0,286046997.8,N
1459596435.8,286046990.7,Y
1459596455.6,286046991.1,P
1459596475.5,286046988.8,P
1459596495.3,286046989.7,P
1459596515.1,286046988.8,Y
1459596535.9,286047001.1,P
1459596555.7,286047002.3,N
1459596575.5,286047001.6,N
1459596595.4,286047002.8,N
1459596615.2,286047003.7,N
1459596635.0,286047001.3,N
1459596635.9,286047001.3,N
1459596655.7,286047005.4,N
1459596675.6,286047008.2,N
1459596695.4,286047011.3,N
1459596715.2,286047013.6,N
1459596735.1,286047013.9,N
1459596736.0,286047013.9,N
1459596755.8,286047009.3,N
1459596775.6,286047011.8,N
1459596795.5,286047010.4,N
1459596815.3,286047005.3,N
1459596835.1,286047003.6,N
1459596855.9,286047001.7,N
1459596875.7,286047003.9,N
1459596895.5,286047003.4,N
1459596915.3,286047003.8,N
1459596935.2,286047007.1,N
1459596955.0,286047007.0,N
1459596955.9,286047007.0,N
1459596975.7,286047003.1,N
1459596995.6,286047005.5,N
1459597015.4,286047004.1,N
1459597035.2,286047004.8,N
1459597055.1,286047003.6,N
1459597056.0,286047003.6,N
1459597075.8,286047001.8,N
1459597095.6,286047004.5,N
1459597115.5,286047008.8,N
1459597135.3,286047008.8,N
1459597155.1,286047008.7,N
1459597175.9,286047008.7,N
1459597195.7,286047008.8,N
1459597215.5,286047007.8,N
1459597235.4,286047006.7,N
1459597255.2,286047008.8,N
1459597275.0,286047003.1,N
1459597275.9,286047003.1,N
1459597295.7,286047002.2,N
1459597315.6,286047002.1,N
1459597335.4,286047003.7,N
1459597355.2,286047001.9,N
1459597375.1,286047000.2,N
1459597376.0,286047000.2,N
1459597395.8,286047001.0,N
1459597415.6,286046998.3,N
1459597435.5,286046998.5,N
1459597455.3,286046999.6,N
1459597475.1,286046997.4,N
1459597495.9,286046996.6,N
1459597515.7,286046998.5,N
1459597535.5,286047002.4,N
1459597555.4,286047001.3,N
1459597575.2,286047005.6,N
1459597595.0,286047003.6,N
1459597595.9,286047003.6,N
1459597615.8,286047004.9,N
1459597635.6,286047004.9,N
1459597655.4,286047004.3,N
1459597675.3,286047003.4,N
1459597695.1,286047004.6,N
1459597696.0,286047004.6,N
1459597715.8,286047008.5,N
1459597735.7,286047008.8,N
1459597755.5,286047006.8,N
1459597775.3,286047012.2,Y
1459597795.2,286047010.5,P
1459597815.9,286047011.7,P
1459597835.7,286047009.7,N
1459597855.6,286047010.9,Y
1459597875.4,286047003.1,P
1459597895.2,286047004.1,N
1459597915.1,286047002.4,N
1459597916.0,286047002.4,N
1459597935.8,286047000.7,N
1459597955.6,286046997.7,N
1459597975.4,286046995.2,N
1459597995.3,286046991.7,N
1459598015.1,286046988.5,N
1459598035.8,286046993.0,N
1459598055.7,286046997.2,N
1459598075.5,286046999.5,N
1459598095.3,286047003.6,N
1459598115.2,286047005.7,N
1459598135.9,286047008.9,N
1459598155.7,286047009.1,N
1459598175.6,286047007.6,N
1459598195.4,286047005.1,N
1459598215.2,286047003.9,N
1459598235.1,286047005.6,N
1459598236.0,286047005.6,N
1459598255.8,286047003.8,N
1459598275.6,286047005.3,N
1459598295.5,286047004.5,N
1459598315.3,286047005.8,N
1459598335.1,286047004.3,N
1459598355.8,286047000.7,N
1459598375.7,286046998.0,N
1459598395.5,286046999.1,N
